Back to catalog

BREEZE-M R/B

AliveHEO
NORAD 39128·ROCKET BODY·🇷🇺 Russia

Launched Apr 15, 2013 from Baikonur Cosmodrome

Loading…

Next Passes (next 24 hours)

TLE

FreshSource: Space-Track

Epoch: Sep 12, 2026, 23:36 UTC

1 39128U 13014B   26255.98390265 -.00000164  00000-0  00000-0 0  9996
2 39128  15.7751 355.5400 4803738 226.4656  82.0598  1.90429769 93299

Track BREEZE-M R/B in real time with AllMySat

Download on the App Store